contact:dominique.lefevre@mio.osupytheas.fr, maurice.libes@osupytheas.fr, didier.mallarino@osupytheas.fr
Project:EMSO http://www.emso-fr.org/EMSO-France
Depth: 2436.0 m
Title:EMSO Ligure Ouest : Data MII capteur AQUADOPP
Date,Latitude,Longitude,X_East,Y_North,Z_Up,Amplitude_X,Amplitude_Y,Amplitude_Z,Batterie,SoundSpeed,Heading,Pitch,Roll,Pressure,TIS,Speed,Direction
, degrees North, degrees East, m.s-1, m.s-1,m.s-1, 1, 1, 1, Volt, m.s-1, degree, degree, degree, dbar, degree_C, m.s-1, degree
2023-05-05T00:04:03,42.805,6.029,0.012,0.013,-0.037,102.0,104.0,101.0,13.4,1505.2,330.9,-0.8,1.8,2471.297,13.29,0.017,42.7
2023-05-05T00:07:03,42.805,6.029,0.016,0.022,-0.001,101.0,105.0,101.0,13.3,1505.2,340.8,-0.8,1.8,2471.311,13.29,0.027,36.0
2023-05-05T00:10:03,42.805,6.029,0.006,0.037,-0.007,103.0,103.0,101.0,13.4,1505.2,323.3,-0.8,1.8,2471.338,13.29,0.037,9.2
2023-05-05T00:13:03,42.805,6.029,-0.008,0.044,-0.029,103.0,103.0,101.0,13.4,1505.2,320.4,-0.8,1.8,2471.285,13.29,0.044,349.7
2023-05-05T00:16:03,42.805,6.029,0.003,0.036,-0.045,102.0,102.0,101.0,13.3,1505.2,338.3,-0.7,1.8,2471.313,13.29,0.036,4.8
2023-05-05T00:19:03,42.805,6.029,-0.018,0.056,0.034,102.0,103.0,101.0,13.3,1505.2,319.3,-0.7,1.8,2471.246,13.29,0.058,342.2
2023-05-05T00:22:03,42.805,6.029,-0.001,0.048,-0.011,101.0,105.0,101.0,13.4,1505.2,333.4,-0.8,1.8,2471.285,13.29,0.048,358.8
2023-05-05T00:25:03,42.805,6.029,-0.024,0.025,-0.033,102.0,104.0,100.0,13.4,1505.2,319.2,-0.7,1.8,2471.252,13.29,0.034,316.2
2023-05-05T00:28:03,42.805,6.029,-0.002,0.04,-0.004,102.0,102.0,101.0,13.4,1505.2,331.8,-0.8,1.8,2471.281,13.29,0.04,357.1
2023-05-05T00:31:03,42.805,6.029,-0.01,0.029,0.006,104.0,103.0,100.0,13.3,1505.2,317.0,-0.8,1.8,2471.261,13.29,0.03,341.0
2023-05-05T00:34:03,42.805,6.029,0.012,0.028,0.014,102.0,104.0,101.0,13.3,1505.2,342.5,-0.8,1.8,2471.257,13.29,0.03,23.2
2023-05-05T00:37:03,42.805,6.029,-0.012,0.041,0.0,105.0,102.0,101.0,13.4,1505.2,324.4,-0.8,1.8,2471.26,13.29,0.042,343.7
2023-05-05T00:40:03,42.805,6.029,0.016,0.038,-0.013,103.0,103.0,102.0,13.3,1505.2,335.9,-0.7,1.8,2471.247,13.29,0.041,22.8
2023-05-05T00:43:03,42.805,6.029,-0.002,0.032,-0.011,103.0,102.0,101.0,13.4,1505.2,332.9,-0.8,1.8,2471.247,13.29,0.032,356.4
2023-05-05T00:46:03,42.805,6.029,0.013,0.041,-0.022,100.0,103.0,101.0,13.3,1505.2,322.9,-0.8,1.8,2471.267,13.29,0.043,17.6
2023-05-05T00:49:03,42.805,6.029,-0.007,0.054,-0.002,101.0,103.0,100.0,13.4,1505.2,326.5,-0.7,1.8,2471.227,13.29,0.054,352.6
2023-05-05T00:52:03,42.805,6.029,0.012,0.032,0.01,103.0,103.0,100.0,13.3,1505.2,324.7,-0.8,1.8,2471.238,13.29,0.034,20.6
2023-05-05T00:55:03,42.805,6.029,0.018,0.031,-0.012,103.0,102.0,101.0,13.3,1505.2,324.4,-0.7,1.8,2471.248,13.29,0.035,30.1
2023-05-05T00:58:03,42.805,6.029,0.001,0.025,0.024,102.0,103.0,102.0,13.3,1505.2,334.4,-0.8,1.9,2471.264,13.29,0.025,2.3
2023-05-05T01:04:03,42.805,6.029,0.036,0.043,0.05,104.0,104.0,102.0,13.4,1505.2,329.8,-0.8,1.8,2471.317,13.29,0.056,39.9
2023-05-05T01:07:03,42.805,6.029,0.001,0.037,-0.022,103.0,105.0,101.0,13.4,1505.2,338.5,-0.8,1.8,2471.329,13.29,0.037,1.5
2023-05-05T01:10:03,42.805,6.029,0.022,0.015,-0.028,102.0,103.0,101.0,13.4,1505.2,341.2,-0.8,1.8,2471.283,13.29,0.026,55.7
2023-05-05T01:13:03,42.805,6.029,0.002,0.042,-0.013,101.0,103.0,101.0,13.3,1505.2,332.1,-0.8,1.8,2471.29,13.29,0.042,2.7
2023-05-05T01:16:03,42.805,6.029,0.014,0.036,0.004,101.0,103.0,102.0,13.3,1505.2,342.9,-0.8,1.8,2471.295,13.29,0.038,21.2
2023-05-05T01:19:03,42.805,6.029,0.008,0.03,-0.006,103.0,102.0,101.0,13.4,1505.2,340.8,-0.8,1.8,2471.272,13.29,0.031,14.9
2023-05-05T01:22:03,42.805,6.029,0.007,0.031,-0.013,102.0,103.0,101.0,13.4,1505.2,333.4,-0.8,1.8,2471.259,13.29,0.031,12.7
2023-05-05T01:25:03,42.805,6.029,0.021,0.04,0.004,101.0,102.0,101.0,13.4,1505.2,345.1,-0.8,1.8,2471.265,13.29,0.045,27.7
2023-05-05T01:28:03,42.805,6.029,-0.012,0.022,-0.012,103.0,104.0,101.0,13.4,1505.2,325.7,-0.8,1.8,2471.254,13.29,0.025,331.4
2023-05-05T01:31:03,42.805,6.029,-0.007,0.041,-0.01,103.0,104.0,100.0,13.4,1505.2,340.6,-0.8,1.8,2471.215,13.29,0.041,350.3
2023-05-05T01:34:03,42.805,6.029,0.002,0.042,-0.029,103.0,103.0,100.0,13.4,1505.2,333.9,-0.8,1.8,2471.275,13.29,0.042,2.7
2023-05-05T01:37:03,42.805,6.029,0.019,0.032,0.009,102.0,103.0,101.0,13.4,1505.2,331.0,-0.8,1.8,2471.233,13.29,0.037,30.7
2023-05-05T01:40:03,42.805,6.029,0.01,0.035,0.001,103.0,104.0,101.0,13.3,1505.2,324.2,-0.8,1.8,2471.259,13.29,0.036,15.9
2023-05-05T01:43:03,42.805,6.029,0.012,0.043,-0.02,102.0,104.0,100.0,13.3,1505.2,322.9,-0.8,1.8,2471.241,13.29,0.044,15.6
2023-05-05T01:46:03,42.805,6.029,0.023,0.041,0.004,103.0,104.0,101.0,13.3,1505.2,345.9,-0.8,1.8,2471.227,13.29,0.047,29.3
2023-05-05T01:49:03,42.805,6.029,0.004,0.039,0.027,103.0,102.0,102.0,13.4,1505.2,322.1,-0.8,1.8,2471.235,13.29,0.039,5.9
2023-05-05T01:52:03,42.805,6.029,0.012,0.04,0.0,103.0,102.0,101.0,13.3,1505.2,322.7,-0.8,1.8,2471.216,13.29,0.041,16.7
2023-05-05T01:55:03,42.805,6.029,-0.025,0.038,-0.031,102.0,102.0,102.0,13.3,1505.2,323.1,-0.8,1.8,2471.24,13.29,0.045,326.7
2023-05-05T01:58:03,42.805,6.029,0.034,0.025,-0.011,102.0,103.0,101.0,13.3,1505.2,325.5,-0.8,1.8,2471.256,13.29,0.042,53.7
2023-05-05T02:04:03,42.805,6.029,0.0,0.034,-0.003,102.0,103.0,102.0,13.4,1505.2,332.9,-0.8,1.8,2471.274,13.29,0.034,0.0
2023-05-05T02:07:03,42.805,6.029,0.017,0.036,0.015,101.0,104.0,101.0,13.3,1505.2,338.5,-0.8,1.8,2471.271,13.29,0.039,25.3
2023-05-05T02:10:03,42.805,6.029,0.014,0.026,-0.017,102.0,104.0,101.0,13.3,1505.2,333.4,-0.8,1.8,2471.245,13.29,0.029,28.3
2023-05-05T02:13:03,42.805,6.029,0.004,0.03,-0.004,102.0,104.0,102.0,13.4,1505.2,319.3,-0.8,1.8,2471.288,13.29,0.03,7.6
2023-05-05T02:16:03,42.805,6.029,0.011,0.026,-0.027,103.0,104.0,100.0,13.4,1505.2,323.3,-0.7,1.9,2471.28,13.29,0.028,22.9
2023-05-05T02:19:03,42.805,6.029,0.012,0.024,-0.007,103.0,103.0,101.0,13.3,1505.2,338.9,-0.8,1.8,2471.246,13.29,0.026,26.6
2023-05-05T02:22:03,42.805,6.029,0.012,0.001,0.003,101.0,105.0,101.0,13.3,1505.2,324.3,-0.8,1.8,2471.266,13.29,0.012,85.2
2023-05-05T02:25:03,42.805,6.029,0.009,0.025,-0.027,103.0,104.0,101.0,13.4,1505.2,320.7,-0.8,1.8,2471.261,13.29,0.026,19.8
2023-05-05T02:28:03,42.805,6.029,0.016,0.01,-0.027,102.0,102.0,102.0,13.3,1505.2,325.2,-0.8,1.8,2471.26,13.29,0.018,58.0
2023-05-05T02:31:03,42.805,6.029,0.018,0.044,-0.016,103.0,105.0,101.0,13.4,1505.2,326.0,-0.8,1.8,2471.259,13.29,0.047,22.2
2023-05-05T02:34:03,42.805,6.029,0.008,0.031,0.002,103.0,103.0,101.0,13.4,1505.2,333.4,-0.8,1.8,2471.248,13.29,0.032,14.5
2023-05-05T02:37:03,42.805,6.029,0.038,0.0,-0.001,102.0,104.0,101.0,13.3,1505.2,340.6,-0.8,1.8,2471.269,13.29,0.038,90.0
2023-05-05T02:40:03,42.805,6.029,0.024,0.011,-0.011,104.0,102.0,102.0,13.4,1505.2,328.8,-0.8,1.9,2471.268,13.29,0.026,65.4
2023-05-05T02:43:03,42.805,6.029,0.03,0.01,-0.019,102.0,104.0,101.0,13.3,1505.2,330.3,-0.7,1.8,2471.251,13.29,0.031,71.6
2023-05-05T02:46:03,42.805,6.029,0.012,0.013,0.013,103.0,104.0,101.0,13.4,1505.2,332.9,-0.7,1.8,2471.268,13.29,0.017,42.7
2023-05-05T02:49:03,42.805,6.029,0.035,0.022,-0.002,102.0,103.0,101.0,13.3,1505.2,344.0,-0.8,1.8,2471.277,13.29,0.041,57.8
2023-05-05T02:52:03,42.805,6.029,0.028,0.02,-0.021,103.0,103.0,101.0,13.4,1505.2,316.8,-0.7,1.8,2471.275,13.29,0.034,54.5
2023-05-05T02:55:03,42.805,6.029,0.039,0.014,-0.031,102.0,105.0,101.0,13.4,1505.2,333.4,-0.8,1.8,2471.252,13.29,0.041,70.3
2023-05-05T02:58:03,42.805,6.029,0.019,0.031,-0.035,103.0,101.0,102.0,13.4,1505.2,319.8,-0.7,1.8,2471.253,13.29,0.036,31.5
2023-05-05T03:04:03,42.805,6.029,0.02,0.001,-0.041,103.0,103.0,101.0,13.4,1505.2,326.8,-0.8,1.8,2471.293,13.28,0.02,87.1
2023-05-05T03:07:03,42.805,6.029,0.01,0.027,-0.017,103.0,103.0,101.0,13.4,1505.2,323.8,-0.8,1.8,2471.322,13.29,0.028,20.3
2023-05-05T03:10:03,42.805,6.029,0.009,0.02,-0.045,103.0,104.0,101.0,13.4,1505.2,318.4,-0.8,1.8,2471.301,13.29,0.021,24.2
2023-05-05T03:13:03,42.805,6.029,0.009,0.017,-0.009,103.0,104.0,102.0,13.3,1505.2,335.5,-0.8,1.8,2471.3,13.29,0.019,27.9
2023-05-05T03:16:03,42.805,6.029,0.011,0.031,0.014,103.0,103.0,102.0,13.4,1505.2,321.4,-0.8,1.8,2471.28,13.29,0.032,19.5
2023-05-05T03:19:03,42.805,6.029,0.031,0.015,-0.001,102.0,103.0,101.0,13.4,1505.2,325.5,-0.8,1.8,2471.277,13.29,0.034,64.2
2023-05-05T03:22:03,42.805,6.029,0.026,0.025,-0.026,103.0,103.0,101.0,13.4,1505.2,339.9,-0.7,1.8,2471.326,13.29,0.036,46.1
2023-05-05T03:25:03,42.805,6.029,0.025,0.035,0.005,104.0,102.0,100.0,13.4,1505.2,327.5,-0.8,1.9,2471.329,13.29,0.043,35.5
2023-05-05T03:28:03,42.805,6.029,0.025,0.037,0.017,102.0,103.0,102.0,13.3,1505.2,319.6,-0.8,1.8,2471.295,13.29,0.044,34.0
2023-05-05T03:31:03,42.805,6.029,0.023,0.034,0.0,103.0,104.0,101.0,13.4,1505.2,329.3,-0.8,1.8,2471.285,13.29,0.041,34.1
2023-05-05T03:34:03,42.805,6.029,0.032,0.011,-0.007,103.0,103.0,101.0,13.4,1505.2,323.3,-0.8,1.8,2471.321,13.29,0.033,71.0
2023-05-05T03:37:03,42.805,6.029,0.028,-0.001,0.039,103.0,103.0,101.0,13.3,1505.2,338.5,-0.8,1.8,2471.266,13.29,0.028,92.0
2023-05-05T03:40:03,42.805,6.029,0.001,0.031,0.017,103.0,102.0,102.0,13.4,1505.2,332.6,-0.7,1.8,2471.265,13.29,0.031,1.8
2023-05-05T03:43:03,42.805,6.029,0.021,0.007,0.013,102.0,104.0,101.0,13.4,1505.2,335.3,-0.8,1.8,2471.351,13.29,0.022,71.6
2023-05-05T03:46:03,42.805,6.029,0.041,0.011,0.0,102.0,104.0,101.0,13.4,1505.2,335.0,-0.8,1.8,2471.315,13.29,0.042,75.0
2023-05-05T03:49:03,42.805,6.029,0.043,0.01,0.024,102.0,104.0,101.0,13.4,1505.2,345.1,-0.8,1.8,2471.347,13.29,0.044,76.9
2023-05-05T03:52:03,42.805,6.029,0.017,0.027,-0.013,103.0,103.0,101.0,13.4,1505.2,335.4,-0.8,1.8,2471.315,13.29,0.031,32.2
2023-05-05T03:55:03,42.805,6.029,0.039,0.013,-0.004,103.0,103.0,100.0,13.3,1505.2,328.4,-0.8,1.8,2471.322,13.29,0.041,71.6
2023-05-05T03:58:03,42.805,6.029,0.033,0.016,-0.007,102.0,103.0,101.0,13.4,1505.2,344.0,-0.8,1.8,2471.276,13.29,0.036,64.1
2023-05-05T04:04:03,42.805,6.029,0.036,0.012,0.009,103.0,102.0,101.0,13.4,1505.2,337.0,-0.8,1.8,2471.353,13.28,0.037,71.6
2023-05-05T04:07:03,42.805,6.029,0.017,0.011,-0.011,102.0,102.0,100.0,13.4,1505.2,340.9,-0.8,1.8,2471.339,13.28,0.02,57.1
2023-05-05T04:10:03,42.805,6.029,0.022,0.01,-0.01,102.0,103.0,102.0,13.4,1505.2,332.5,-0.8,1.8,2471.356,13.29,0.024,65.6
2023-05-05T04:13:03,42.805,6.029,0.032,0.029,0.009,102.0,102.0,101.0,13.3,1505.2,335.4,-0.8,1.8,2471.375,13.29,0.043,47.8
2023-05-05T04:16:03,42.805,6.029,0.016,-0.009,0.009,103.0,103.0,101.0,13.4,1505.2,339.0,-0.8,1.9,2471.363,13.29,0.018,119.4
2023-05-05T04:19:03,42.805,6.029,0.042,0.021,0.0,103.0,103.0,101.0,13.4,1505.2,337.3,-0.8,1.8,2471.356,13.29,0.046,63.4
2023-05-05T04:22:03,42.805,6.029,0.048,0.036,-0.005,101.0,103.0,101.0,13.4,1505.2,315.6,-0.8,1.8,2471.355,13.29,0.06,53.1
2023-05-05T04:25:03,42.805,6.029,0.026,0.007,0.0,102.0,103.0,100.0,13.3,1505.2,340.6,-0.8,1.8,2471.372,13.29,0.026,74.9
2023-05-05T04:28:03,42.805,6.029,0.026,0.038,0.007,105.0,101.0,101.0,13.4,1505.2,334.9,-0.7,1.8,2471.353,13.29,0.046,34.4
2023-05-05T04:31:03,42.805,6.029,0.013,0.028,-0.012,102.0,103.0,102.0,13.4,1505.2,318.5,-0.8,1.8,2471.39,13.29,0.03,24.9
2023-05-05T04:34:03,42.805,6.029,0.042,0.0,0.005,103.0,103.0,101.0,13.3,1505.2,342.6,-0.8,1.8,2471.338,13.29,0.042,90.0
2023-05-05T04:37:03,42.805,6.029,0.032,0.005,0.009,102.0,102.0,102.0,13.4,1505.2,337.2,-0.8,1.8,2471.337,13.29,0.032,81.1
2023-05-05T04:40:03,42.805,6.029,0.033,0.016,0.0,103.0,103.0,100.0,13.3,1505.2,338.7,-0.8,1.8,2471.318,13.29,0.036,64.1
2023-05-05T04:43:03,42.805,6.029,0.033,0.035,-0.002,102.0,103.0,101.0,13.3,1505.2,337.0,-0.8,1.9,2471.348,13.29,0.048,43.3
2023-05-05T04:46:03,42.805,6.029,0.04,0.027,0.012,103.0,102.0,102.0,13.3,1505.2,317.0,-0.8,1.8,2471.396,13.29,0.048,56.0
2023-05-05T04:49:03,42.805,6.029,0.044,0.011,0.014,102.0,103.0,101.0,13.4,1505.2,330.1,-0.8,1.8,2471.347,13.29,0.045,76.0
2023-05-05T04:52:03,42.805,6.029,0.023,0.015,-0.021,102.0,104.0,100.0,13.4,1505.2,322.2,-0.8,1.8,2471.358,13.29,0.027,56.9
2023-05-05T04:55:03,42.805,6.029,0.021,0.003,-0.01,103.0,103.0,101.0,13.4,1505.2,335.7,-0.8,1.9,2471.35,13.29,0.021,81.9
2023-05-05T04:58:03,42.805,6.029,0.034,0.02,0.009,104.0,102.0,100.0,13.4,1505.2,319.6,-0.8,1.8,2471.345,13.29,0.039,59.5
2023-05-05T05:04:03,42.805,6.029,0.023,0.025,0.0,103.0,103.0,102.0,13.4,1505.2,331.6,-0.8,1.8,2471.425,13.28,0.033,42.6
2023-05-05T05:07:03,42.805,6.029,0.002,0.014,0.0,103.0,103.0,102.0,13.4,1505.2,334.4,-0.8,1.8,2471.404,13.28,0.014,8.1
2023-05-05T05:10:03,42.805,6.029,0.024,0.011,-0.01,105.0,102.0,101.0,13.4,1505.2,328.7,-0.8,1.8,2471.428,13.29,0.026,65.4
2023-05-05T05:13:03,42.805,6.029,-0.003,0.028,-0.017,103.0,104.0,101.0,13.3,1505.2,319.8,-0.8,1.8,2471.393,13.29,0.028,353.9
2023-05-05T05:16:03,42.805,6.029,0.029,-0.008,0.0,103.0,102.0,101.0,13.4,1505.2,344.8,-0.8,1.8,2471.376,13.29,0.03,105.4
2023-05-05T05:19:03,42.805,6.029,0.04,0.014,0.019,102.0,104.0,101.0,13.3,1505.2,331.3,-0.8,1.8,2471.387,13.29,0.042,70.7
2023-05-05T05:22:03,42.805,6.029,0.024,0.012,-0.025,102.0,103.0,101.0,13.4,1505.2,321.3,-0.8,1.8,2471.407,13.29,0.026,63.4
2023-05-05T05:25:03,42.805,6.029,0.033,0.008,0.004,103.0,103.0,102.0,13.4,1505.2,345.7,-0.8,1.8,2471.41,13.29,0.033,76.4
2023-05-05T05:28:03,42.805,6.029,0.023,0.022,0.013,103.0,103.0,101.0,13.4,1505.2,316.2,-0.8,1.8,2471.438,13.29,0.031,46.3
2023-05-05T05:31:03,42.805,6.029,0.017,0.005,-0.004,102.0,103.0,102.0,13.4,1505.2,326.5,-0.8,1.8,2471.391,13.29,0.017,73.6
2023-05-05T05:34:03,42.805,6.029,0.035,0.0,-0.014,101.0,103.0,102.0,13.4,1505.2,335.2,-0.7,1.8,2471.445,13.29,0.035,90.0
2023-05-05T05:37:03,42.805,6.029,0.027,0.024,-0.009,102.0,103.0,102.0,13.4,1505.2,321.7,-0.7,1.8,2471.363,13.29,0.036,48.4
2023-05-05T05:40:03,42.805,6.029,0.04,0.005,-0.01,102.0,105.0,102.0,13.4,1505.2,330.6,-0.7,1.8,2471.404,13.29,0.04,82.9
2023-05-05T05:43:03,42.805,6.029,0.017,0.034,-0.024,102.0,104.0,101.0,13.4,1505.2,339.7,-0.8,1.8,2471.404,13.29,0.038,26.6
2023-05-05T05:46:03,42.805,6.029,0.025,0.007,-0.05,103.0,102.0,100.0,13.4,1505.2,323.5,-0.8,1.8,2471.373,13.29,0.025,74.4
2023-05-05T05:49:03,42.805,6.029,0.023,0.0,-0.024,103.0,103.0,100.0,13.3,1505.2,342.9,-0.8,1.8,2471.433,13.29,0.023,90.0
2023-05-05T05:52:03,42.805,6.029,0.033,0.023,-0.007,103.0,102.0,101.0,13.4,1505.2,324.2,-0.7,1.8,2471.428,13.29,0.04,55.1
2023-05-05T05:55:03,42.805,6.029,0.022,0.032,0.01,103.0,102.0,100.0,13.3,1505.2,344.6,-0.8,1.8,2471.417,13.29,0.038,34.5
2023-05-05T05:58:03,42.805,6.029,0.035,-0.004,-0.031,102.0,102.0,102.0,13.4,1505.2,320.1,-0.8,1.8,2471.411,13.29,0.035,96.5
2023-05-05T06:04:03,42.805,6.029,0.034,-0.018,-0.013,102.0,102.0,100.0,13.4,1505.2,342.3,-0.8,1.8,2471.46,13.28,0.038,117.9
2023-05-05T06:07:03,42.805,6.029,0.023,0.019,0.003,102.0,103.0,101.0,13.4,1505.2,324.4,-0.8,1.8,2471.443,13.28,0.029,50.4
2023-05-05T06:10:03,42.805,6.029,0.04,0.012,0.0,103.0,103.0,101.0,13.3,1505.2,343.7,-0.8,1.8,2471.425,13.28,0.041,73.3
2023-05-05T06:13:03,42.805,6.029,0.022,0.004,-0.023,102.0,102.0,102.0,13.4,1505.2,324.6,-0.8,1.8,2471.469,13.29,0.022,79.7
2023-05-05T06:16:03,42.805,6.029,0.044,0.001,0.0,101.0,103.0,101.0,13.4,1505.2,329.9,-0.8,1.8,2471.443,13.29,0.044,88.7
2023-05-05T06:19:03,42.805,6.029,0.045,0.007,0.008,102.0,102.0,100.0,13.4,1505.2,326.0,-0.7,1.8,2471.445,13.29,0.045,81.2
2023-05-05T06:22:03,42.805,6.029,0.036,0.023,0.01,101.0,102.0,101.0,13.3,1505.2,320.9,-0.7,1.8,2471.43,13.29,0.042,57.4
2023-05-05T06:25:03,42.805,6.029,0.008,0.017,-0.008,102.0,102.0,100.0,13.4,1505.2,321.3,-0.8,1.8,2471.466,13.29,0.018,25.2
2023-05-05T06:28:03,42.805,6.029,0.015,0.022,-0.001,101.0,102.0,100.0,13.3,1505.2,335.4,-0.7,1.8,2471.44,13.29,0.026,34.3
2023-05-05T06:31:03,42.805,6.029,0.027,0.017,0.004,103.0,102.0,102.0,13.3,1505.2,315.6,-0.8,1.8,2471.433,13.29,0.031,57.8
2023-05-05T06:34:03,42.805,6.029,0.03,-0.006,-0.01,102.0,103.0,100.0,13.4,1505.2,343.4,-0.8,1.8,2471.442,13.29,0.03,101.3
2023-05-05T06:37:03,42.805,6.029,0.017,0.012,-0.012,102.0,102.0,101.0,13.4,1505.2,322.3,-0.8,1.8,2471.42,13.29,0.02,54.8
2023-05-05T06:40:03,42.805,6.029,0.041,0.017,-0.025,101.0,102.0,100.0,13.3,1505.2,317.7,-0.8,1.8,2471.389,13.29,0.044,67.5
2023-05-05T06:43:03,42.805,6.029,0.047,0.012,0.033,102.0,102.0,101.0,13.4,1505.2,343.6,-0.7,1.8,2471.454,13.29,0.048,75.7
2023-05-05T06:46:03,42.805,6.029,0.022,0.018,-0.01,102.0,102.0,101.0,13.3,1505.2,327.3,-0.7,1.8,2471.438,13.29,0.028,50.7
2023-05-05T06:49:03,42.805,6.029,0.013,0.014,-0.008,102.0,102.0,100.0,13.3,1505.2,320.4,-0.8,1.8,2471.431,13.29,0.019,42.9
2023-05-05T06:52:03,42.805,6.029,0.019,0.013,0.001,102.0,102.0,101.0,13.4,1505.2,320.7,-0.8,1.8,2471.422,13.29,0.023,55.6
2023-05-05T06:55:03,42.805,6.029,0.046,0.02,0.009,102.0,101.0,100.0,13.4,1505.2,327.0,-0.7,1.8,2471.459,13.29,0.05,66.5
2023-05-05T06:58:03,42.805,6.029,0.031,-0.009,-0.002,102.0,103.0,100.0,13.4,1505.2,340.8,-0.8,1.8,2471.417,13.29,0.032,106.2
2023-05-05T07:04:03,42.805,6.029,0.011,0.002,-0.038,101.0,102.0,101.0,13.4,1505.2,321.9,-0.8,1.8,2471.484,13.28,0.011,79.7
2023-05-05T07:07:03,42.805,6.029,0.028,0.028,0.005,103.0,101.0,100.0,13.4,1505.2,319.6,-0.8,1.8,2471.477,13.28,0.039,45.0
2023-05-05T07:10:03,42.805,6.029,0.042,0.003,-0.009,103.0,102.0,100.0,13.4,1505.2,327.3,-0.7,1.8,2471.464,13.28,0.042,85.9
2023-05-05T07:13:03,42.805,6.029,0.025,0.015,0.0,102.0,101.0,100.0,13.4,1505.2,339.1,-0.8,1.8,2471.494,13.29,0.029,59.0
2023-05-05T07:16:03,42.805,6.029,0.019,0.029,0.003,102.0,102.0,101.0,13.4,1505.2,344.0,-0.8,1.8,2471.503,13.29,0.034,33.2
2023-05-05T07:19:03,42.805,6.029,0.042,0.007,-0.008,102.0,102.0,101.0,13.4,1505.2,329.8,-0.7,1.8,2471.488,13.29,0.042,80.5
2023-05-05T07:22:03,42.805,6.029,0.024,0.036,-0.003,102.0,102.0,100.0,13.4,1505.2,323.6,-0.8,1.8,2471.472,13.29,0.043,33.7
2023-05-05T07:25:03,42.805,6.029,0.015,0.014,-0.004,102.0,102.0,101.0,13.4,1505.2,330.3,-0.8,1.8,2471.462,13.29,0.02,47.0
2023-05-05T07:28:03,42.805,6.029,0.023,-0.001,0.0,102.0,102.0,100.0,13.4,1505.2,326.6,-0.7,1.8,2471.442,13.29,0.023,92.5
2023-05-05T07:31:03,42.805,6.029,0.03,0.003,0.006,101.0,103.0,102.0,13.4,1505.2,333.0,-0.7,1.8,2471.46,13.29,0.03,84.3
2023-05-05T07:34:03,42.805,6.029,0.03,0.01,-0.001,103.0,103.0,101.0,13.4,1505.2,333.9,-0.8,1.8,2471.481,13.29,0.031,71.6
2023-05-05T07:37:03,42.805,6.029,0.037,0.017,0.02,102.0,103.0,102.0,13.4,1505.2,341.9,-0.8,1.8,2471.443,13.29,0.04,65.3
2023-05-05T07:40:03,42.805,6.029,0.032,0.004,-0.014,103.0,103.0,100.0,13.3,1505.2,334.9,-0.8,1.8,2471.456,13.29,0.032,82.9
2023-05-05T07:43:03,42.805,6.029,0.028,-0.021,-0.016,102.0,102.0,101.0,13.4,1505.2,333.4,-0.8,1.8,2471.445,13.29,0.035,126.9
2023-05-05T07:46:03,42.805,6.029,0.022,0.026,-0.012,102.0,103.0,101.0,13.4,1505.2,330.7,-0.8,1.8,2471.438,13.29,0.034,40.2
2023-05-05T07:49:03,42.805,6.029,0.03,-0.006,-0.023,102.0,103.0,100.0,13.3,1505.2,322.6,-0.8,1.8,2471.458,13.29,0.03,101.3
2023-05-05T07:52:03,42.805,6.029,0.024,0.021,0.005,102.0,103.0,100.0,13.4,1505.2,319.4,-0.8,1.9,2471.446,13.29,0.031,48.8
2023-05-05T07:55:03,42.805,6.029,0.037,-0.02,-0.009,102.0,104.0,101.0,13.4,1505.2,344.9,-0.8,1.8,2471.445,13.29,0.042,118.4
2023-05-05T07:58:03,42.805,6.029,0.049,0.009,-0.027,101.0,103.0,100.0,13.4,1505.2,317.0,-0.8,1.8,2471.418,13.29,0.049,79.6
2023-05-05T08:04:03,42.805,6.029,0.016,0.018,-0.011,102.0,102.0,101.0,13.3,1505.2,344.8,-0.8,1.8,2471.478,13.28,0.024,41.6
2023-05-05T08:07:03,42.805,6.029,0.026,-0.008,-0.026,103.0,103.0,101.0,13.4,1505.2,339.1,-0.8,1.8,2471.516,13.28,0.027,107.1
2023-05-05T08:10:03,42.805,6.029,0.025,0.0,-0.005,103.0,102.0,100.0,13.4,1505.2,340.8,-0.7,1.8,2471.486,13.28,0.025,90.0
2023-05-05T08:13:03,42.805,6.029,0.034,0.019,-0.015,102.0,103.0,101.0,13.3,1505.2,322.7,-0.7,1.8,2471.489,13.29,0.038,60.8
2023-05-05T08:16:03,42.805,6.029,0.021,0.001,-0.049,102.0,102.0,100.0,13.4,1505.2,335.6,-0.8,1.8,2471.483,13.29,0.021,87.3
2023-05-05T08:19:03,42.805,6.029,0.037,-0.004,0.005,102.0,101.0,101.0,13.3,1505.2,325.0,-0.8,1.8,2471.452,13.29,0.037,96.2
2023-05-05T08:22:03,42.805,6.029,0.036,0.016,-0.015,101.0,103.0,101.0,13.4,1505.2,321.7,-0.8,1.8,2471.472,13.29,0.039,66.0
2023-05-05T08:25:03,42.805,6.029,0.021,0.02,-0.022,102.0,102.0,101.0,13.3,1505.2,327.7,-0.8,1.8,2471.473,13.29,0.028,46.4
2023-05-05T08:28:03,42.805,6.029,0.026,0.016,-0.012,102.0,101.0,101.0,13.4,1505.2,339.5,-0.7,1.8,2471.42,13.29,0.03,58.4
2023-05-05T08:31:03,42.805,6.029,0.041,-0.002,-0.014,102.0,101.0,100.0,13.4,1505.2,333.8,-0.7,1.8,2471.439,13.29,0.041,92.8
2023-05-05T08:34:03,42.805,6.029,0.03,0.009,-0.01,102.0,101.0,101.0,13.4,1505.2,323.7,-0.8,1.8,2471.452,13.29,0.031,73.3
2023-05-05T08:37:03,42.805,6.029,0.044,0.014,0.003,101.0,101.0,101.0,13.3,1505.2,321.7,-0.8,1.8,2471.417,13.29,0.046,72.4
2023-05-05T08:40:03,42.805,6.029,0.021,0.006,-0.029,101.0,101.0,100.0,13.4,1505.2,324.2,-0.7,1.8,2471.43,13.29,0.021,74.1
2023-05-05T08:43:03,42.805,6.029,0.058,-0.001,-0.009,101.0,101.0,100.0,13.3,1505.2,318.9,-0.8,1.8,2471.422,13.29,0.058,91.0
2023-05-05T08:46:03,42.805,6.029,0.03,0.019,-0.027,101.0,102.0,100.0,13.3,1505.2,330.8,-0.8,1.9,2471.423,13.29,0.035,57.7
2023-05-05T08:49:03,42.805,6.029,0.022,0.013,-0.008,103.0,102.0,101.0,13.4,1505.2,329.9,-0.8,1.8,2471.43,13.29,0.025,59.4
2023-05-05T08:52:03,42.805,6.029,0.027,0.018,0.003,102.0,102.0,101.0,13.4,1505.2,330.9,-0.8,1.8,2471.404,13.29,0.032,56.3
2023-05-05T08:55:03,42.805,6.029,0.035,0.005,0.009,102.0,102.0,101.0,13.4,1505.2,331.8,-0.7,1.8,2471.422,13.29,0.035,81.9
2023-05-05T08:58:03,42.805,6.029,0.031,0.003,0.011,102.0,101.0,101.0,13.3,1505.2,320.4,-0.8,1.8,2471.387,13.29,0.031,84.5
2023-05-05T09:04:03,42.805,6.029,0.04,0.007,-0.002,102.0,103.0,99.0,13.4,1505.2,337.5,-0.8,1.8,2471.469,13.28,0.04,80.1
2023-05-05T09:07:03,42.805,6.029,0.019,0.018,-0.001,102.0,102.0,101.0,13.4,1505.2,333.4,-0.8,1.8,2471.408,13.28,0.026,46.5
2023-05-05T09:10:03,42.805,6.029,0.031,0.002,-0.02,101.0,102.0,101.0,13.4,1505.2,319.4,-0.8,1.8,2471.439,13.29,0.031,86.3
2023-05-05T09:13:03,42.805,6.029,0.017,0.005,-0.026,102.0,101.0,101.0,13.4,1505.2,338.6,-0.8,1.8,2471.423,13.29,0.017,73.6
2023-05-05T09:16:03,42.805,6.029,-0.01,0.032,-0.027,102.0,102.0,101.0,13.3,1505.2,329.5,-0.8,1.8,2471.435,13.29,0.033,342.6
2023-05-05T09:19:03,42.805,6.029,0.012,0.02,-0.012,102.0,102.0,101.0,13.3,1505.2,322.9,-0.7,1.8,2471.422,13.29,0.023,31.0
2023-05-05T09:22:03,42.805,6.029,0.03,0.017,-0.013,103.0,103.0,101.0,13.3,1505.2,341.2,-0.8,1.8,2471.39,13.29,0.034,60.5
2023-05-05T09:25:03,42.805,6.029,0.028,0.003,0.006,102.0,102.0,101.0,13.4,1505.2,326.3,-0.7,1.8,2471.425,13.29,0.028,83.9
2023-05-05T09:28:03,42.805,6.029,0.022,-0.001,-0.035,102.0,103.0,100.0,13.4,1505.2,332.1,-0.7,1.8,2471.429,13.29,0.022,92.6
2023-05-05T09:31:03,42.805,6.029,0.024,0.01,-0.023,102.0,102.0,101.0,13.4,1505.2,340.4,-0.8,1.8,2471.404,13.29,0.026,67.4
2023-05-05T09:34:03,42.805,6.029,0.006,0.017,-0.019,103.0,103.0,101.0,13.3,1505.2,327.3,-0.8,1.8,2471.352,13.29,0.018,19.4
2023-05-05T09:37:03,42.805,6.029,0.028,0.027,-0.02,102.0,103.0,101.0,13.4,1505.2,330.9,-0.8,1.8,2471.373,13.29,0.038,46.0
2023-05-05T09:40:03,42.805,6.029,0.02,0.0,0.003,102.0,103.0,101.0,13.4,1505.2,335.3,-0.8,1.8,2471.389,13.29,0.02,90.0
2023-05-05T09:43:03,42.805,6.029,0.0,0.013,-0.006,103.0,103.0,100.0,13.4,1505.2,324.3,-0.8,1.8,2471.394,13.29,0.013,0.0
2023-05-05T09:46:03,42.805,6.029,0.026,0.002,-0.016,102.0,104.0,101.0,13.4,1505.2,319.8,-0.8,1.8,2471.379,13.29,0.026,85.6
2023-05-05T09:49:03,42.805,6.029,0.012,0.024,-0.002,104.0,103.0,99.0,13.4,1505.2,332.0,-0.8,1.8,2471.365,13.29,0.026,26.6
2023-05-05T09:52:03,42.805,6.029,0.019,0.008,-0.049,103.0,102.0,101.0,13.4,1505.2,329.8,-0.7,1.8,2471.367,13.29,0.02,67.2
2023-05-05T09:55:03,42.805,6.029,0.0,0.026,-0.002,103.0,102.0,102.0,13.3,1505.2,325.5,-0.7,1.8,2471.335,13.29,0.026,0.0
2023-05-05T09:58:03,42.805,6.029,0.016,0.018,0.013,102.0,101.0,101.0,13.4,1505.2,341.2,-0.8,1.8,2471.386,13.29,0.024,41.6
2023-05-05T10:04:03,42.805,6.029,0.016,0.024,-0.016,103.0,102.0,100.0,13.4,1505.2,329.8,-0.8,1.8,2471.387,13.28,0.028,33.7
2023-05-05T10:07:03,42.805,6.029,0.011,0.016,0.003,103.0,101.0,102.0,13.4,1505.2,324.8,-0.8,1.8,2471.395,13.28,0.019,34.5